Regional Weather Roundup
Issued by NWS Burlington, VT

Current Version | Previous Version | Graphics & Text | Print | Product List | Glossary Off
Versions: 1 2 3 4 5 6 7 8 9 10 11 12 13 14 15 16 17 18 19 20 21 22 23 24 25 26 27 28 29 30 31 32 33 34 35 36 37 38 39 40 41 42 43 44 45 46 47 48 49 50

000
ASUS41 KBTV 180830
RWRBTV
VERMONT REGIONAL WEATHER ROUNDUP
NATIONAL WEATHER SERVICE BURLINGTON VT
300 AM EST THU DEC 18 2014

NOTE: "FAIR" INDICATES FEW OR NO CLOUDS BELOW 12,000 FEET WITH NO
SIGNIFICANT WEATHER AND/OR OBSTRUCTIONS TO VISIBILITY.

* THESE REPORTS ARE NOT UNDER NWS QUALITY CONTROL AND/OR DO NOT
  REPORT WEATHER SUCH AS PRECIPITATION AND FOG.

VTZ001>019-180900-
_____VERMONT_____


CITY           SKY/WX    TMP DP  RH WIND       PRES   REMARKS
BURLINGTON     LGT RAIN  34  32  92 N6        29.76R FOG
MONTPELIER     CLOUDY    33  32  96 CALM      29.74R
MORRISVILLE    LGT SNOW  33  31  92 N8        29.73S FOG
ST. JOHNSBURY*   N/A     33  32  96 MISG      29.69S
LYNDONVILLE*   LGT SNOW  33  32  95 W3        29.69F
MIDDLEBURY*    MIX PCPN  33  33 100 CALM      29.75S
RUTLAND*       CLOUDY    34  30  86 W7        29.74F
SPRINGFIELD    CLOUDY    37  28  70 W8        29.73R
HIGHGATE*      LGT SNOW  32  32  99 CALM      29.77S
NEWPORT*       LGT SNOW  32  30  94 CALM      29.71S
BENNINGTON     LGT SNOW  32  29  88 SW10G17   29.79F FOG
SUTTON*          N/A     32 N/A N/A MISG        N/A
GALLUP MILLS*    N/A     32 N/A N/A MISG        N/A
UNION VILLAGE*   N/A     32 N/A N/A MISG        N/A
MT. MANSFIELD*   N/A     25 N/A N/A CALM        N/A

_____LAKE CHAMPLAIN_____


CITY           SKY/WX    TMP DP  RH WIND       PRES   REMARKS
BURTON ISLAND*   N/A     34  34 100 N1          N/A
COLCHESTER RF*   N/A     36  36 100 E5          N/A

$$

NYZ007-026>031-035-052-083-180900-
_____NORTHERN NEW YORK_____


CITY           SKY/WX    TMP DP  RH WIND       PRES   REMARKS
PLATTSBURGH    LGT RAIN  33  33 100 CALM      29.77S FOG
SARANAC LAKE   CLOUDY    30  32 100 W6        29.73R FOG
MASSENA        FLURRIES  34  31  88 W7        29.82R
OGDENSBURG*    FLURRIES  34  34 100 W7        29.84S
POTSDAM*       CLOUDY    34  34 100 W12       29.82S
STARK FALLS*     N/A     34 N/A N/A W7          N/A
WATERTOWN      LGT SNOW  35  29  78 W12       29.90R
FT DRUM        LGT SNOW  32  30  94 W12G23    29.86R FOG
ALBANY         FLURRIES  35  29  78 W9        29.85R
GLENS FALLS    CLOUDY    33  31  92 S10       29.79S

$$
NHZ002-005-011-180900-
_____NEW HAMPSHIRE_____


CITY           SKY/WX    TMP DP  RH WIND       PRES   REMARKS
LEBANON        CLOUDY    34  33  96 CALM      29.71S
KEENE          CLOUDY    34  32  93 CALM      29.74S
MT WASHINGTON  SNOW      14  14 100 NW45        N/A  VSB 1/16WCI -10
PLYMOUTH       DRIZZLE   36  36  98 W9        29.68S
WHITEFIELD     LGT SNOW  34  32  92 CALM      29.68S FOG

$$

_____REGIONAL QUEBEC LOCATIONS_____


CITY           SKY/WX    TMP DP  RH WIND       PRES   REMARKS
MONTREAL       LGT SNOW  32  30  93 W5        29.78S FOG
QUEBEC CITY    LGT SNOW  30  28  93 NE5       29.75S
SHERBROOKE     LGT SNOW  32  32 100 W8        29.69S

_____REGIONAL ONTARIO LOCATIONS_____


CITY           SKY/WX    TMP DP  RH WIND       PRES   REMARKS
OTTAWA         LGT SNOW  32  32 100 W13G21    29.82R FOG

______KEY______
VSB  - VISIBILITY IN MILES
WCI  - WIND CHILL INDEX
HX   - HEAT INDEX
$$
NNNN


USA.gov is the U.S. government's official web portal to all federal, state and local government web resources and services.